owner,sensor,date,latitude,longitude,vertical_datum,sea_water_practical_salinity,qcFlag 
DISL,ioos:station:DISL:DISL:1,2012-04-01T00:00:00Z,30.2513,-88.0778,7.25,10.51,1111122 
DISL,ioos:station:DISL:DISL:1,2012-04-01T00:30:00Z,30.2513,-88.0778,7.12,11.1,1111122 
DISL,ioos:station:DISL:DISL:1,2012-04-01T01:00:00Z,30.2513,-88.0778,7.14,11.05,1111122 
DISL,ioos:station:DISL:DISL:1,2012-04-01T01:30:00Z,30.2513,-88.0778,7.12,11.24,1111122 
DISL,ioos:station:DISL:DISL:1,2012-04-01T02:00:00Z,30.2513,-88.0778,7.04,10.7,1111122 
DISL,ioos:station:DISL:DISL:1,2012-04-01T02:30:00Z,30.2513,-88.0778,7.01,11.24,1111122 
DISL,ioos:station:DISL:DISL:1,2012-04-01T03:00:00Z,30.2513,-88.0778,6.943,11.04,1111122 
DISL,ioos:station:DISL:DISL:1,2012-04-01T03:30:00Z,30.2513,-88.0778,6.87,10.1,1111122 
DISL,ioos:station:DISL:DISL:1,2012-04-01T04:00:00Z,30.2513,-88.0778,6.822,10.35,1111122 
DISL,ioos:station:DISL:DISL:1,2012-04-01T04:30:00Z,30.2513,-88.0778,6.726,10.66,1111122 
DISL,ioos:station:DISL:DISL:1,2012-04-01T05:00:00Z,30.2513,-88.0778,6.657,10.77,1111122 
DISL,ioos:station:DISL:DISL:1,2012-04-01T05:30:00Z,30.2513,-88.0778,6.615,10.56,1111122 
DISL,ioos:station:DISL:DISL:1,2012-04-01T06:00:00Z,30.2513,-88.0778,6.52,10.85,1111122 
DISL,ioos:station:DISL:DISL:1,2012-04-01T06:30:00Z,30.2513,-88.0778,6.465,10.62,1111122 
DISL,ioos:station:DISL:DISL:1,2012-04-01T07:00:00Z,30.2513,-88.0778,6.322,11.29,1111122 
DISL,ioos:station:DISL:DISL:1,2012-04-01T07:30:00Z,30.2513,-88.0778,6.319,11.44,1111122 
DISL,ioos:station:DISL:DISL:1,2012-04-01T08:00:00Z,30.2513,-88.0778,6.274,11.7,1111122 
DISL,ioos:station:DISL:DISL:1,2012-04-01T08:30:00Z,30.2513,-88.0778,6.268,11.62,1111122 
DISL,ioos:station:DISL:DISL:1,2012-04-01T09:00:00Z,30.2513,-88.0778,6.201,11.71,1111122 
DISL,ioos:station:DISL:DISL:1,2012-04-01T09:30:00Z,30.2513,-88.0778,6.188,9.96,1111122 
DISL,ioos:station:DISL:DISL:1,2012-04-01T10:00:00Z,30.2513,-88.0778,6.126,8.38,1111122 
DISL,ioos:station:DISL:DISL:1,2012-04-01T10:30:00Z,30.2513,-88.0778,6.22,9.53,1111122 
DISL,ioos:station:DISL:DISL:1,2012-04-01T11:00:00Z,30.2513,-88.0778,6.297,9.6,1111122 
DISL,ioos:station:DISL:DISL:1,2012-04-01T11:30:00Z,30.2513,-88.0778,6.265,9.89,1111122 
DISL,ioos:station:DISL:DISL:1,2012-04-01T12:00:00Z,30.2513,-88.0778,6.284,10.83,1111122 
DISL,ioos:station:DISL:DISL:1,2012-04-01T12:30:00Z,30.2513,-88.0778,6.323,9.82,1111122 
DISL,ioos:station:DISL:DISL:1,2012-04-01T13:00:00Z,30.2513,-88.0778,6.347,10.43,1111122 
DISL,ioos:station:DISL:DISL:1,2012-04-01T13:30:00Z,30.2513,-88.0778,6.405,10.45,1111122 
DISL,ioos:station:DISL:DISL:1,2012-04-01T14:00:00Z,30.2513,-88.0778,6.033,10.28,1111122 
DISL,ioos:station:DISL:DISL:1,2012-04-01T14:30:00Z,30.2513,-88.0778,6.452,10.5,1111122 
DISL,ioos:station:DISL:DISL:1,2012-04-01T15:00:00Z,30.2513,-88.0778,6.485,10.92,1111122 
DISL,ioos:station:DISL:DISL:1,2012-04-01T15:30:00Z,30.2513,-88.0778,6.597,10.97,1111122 
DISL,ioos:station:DISL:DISL:1,2012-04-01T16:00:00Z,30.2513,-88.0778,6.634,11.33,1111122 
DISL,ioos:station:DISL:DISL:1,2012-04-01T16:30:00Z,30.2513,-88.0778,6.664,10.99,1111122 
DISL,ioos:station:DISL:DISL:1,2012-04-01T17:00:00Z,30.2513,-88.0778,6.714,10.79,1111122 
DISL,ioos:station:DISL:DISL:1,2012-04-01T17:30:00Z,30.2513,-88.0778,6.761,10.34,1111122 
DISL,ioos:station:DISL:DISL:1,2012-04-01T18:00:00Z,30.2513,-88.0778,6.803,9.99,1111122 
DISL,ioos:station:DISL:DISL:1,2012-04-01T18:30:00Z,30.2513,-88.0778,6.896,10.21,1111122 
DISL,ioos:station:DISL:DISL:1,2012-04-01T19:00:00Z,30.2513,-88.0778,6.78,10.03,1111122 
DISL,ioos:station:DISL:DISL:1,2012-04-01T19:30:00Z,30.2513,-88.0778,6.844,10.16,1111122 
DISL,ioos:station:DISL:DISL:1,2012-04-01T20:00:00Z,30.2513,-88.0778,6.887,9.71,1111122 
DISL,ioos:station:DISL:DISL:1,2012-04-01T20:30:00Z,30.2513,-88.0778,7.03,10.95,1111122 
DISL,ioos:station:DISL:DISL:1,2012-04-01T21:00:00Z,30.2513,-88.0778,6.941,10.68,1111122 
DISL,ioos:station:DISL:DISL:1,2012-04-01T21:30:00Z,30.2513,-88.0778,7.04,11.83,1111122 
DISL,ioos:station:DISL:DISL:1,2012-04-01T22:00:00Z,30.2513,-88.0778,7.0,10.66,1111122 
DISL,ioos:station:DISL:DISL:1,2012-04-01T22:30:00Z,30.2513,-88.0778,7.06,10.56,1111122 
DISL,ioos:station:DISL:DISL:1,2012-04-01T23:00:00Z,30.2513,-88.0778,7.07,10.32,1111122 
DISL,ioos:station:DISL:DISL:1,2012-04-01T23:30:00Z,30.2513,-88.0778,7.09,10.01,1111122 
DISL,ioos:station:DISL:DISL:1,2012-04-02T00:00:00Z,30.2513,-88.0778,7.11,10.09,1111122 
DISL,ioos:station:DISL:DISL:1,2012-04-02T00:30:00Z,30.2513,-88.0778,7.13,10.19,1111122 
DISL,ioos:station:DISL:DISL:1,2012-04-02T01:00:00Z,30.2513,-88.0778,7.06,10.28,1111122 
DISL,ioos:station:DISL:DISL:1,2012-04-02T01:30:00Z,30.2513,-88.0778,6.973,10.38,1111122 
DISL,ioos:station:DISL:DISL:1,2012-04-02T02:00:00Z,30.2513,-88.0778,6.897,10.24,1111122 
DISL,ioos:station:DISL:DISL:1,2012-04-02T02:30:00Z,30.2513,-88.0778,6.901,10.22,1111122 
DISL,ioos:station:DISL:DISL:1,2012-04-02T03:00:00Z,30.2513,-88.0778,6.835,10.41,1111122 
DISL,ioos:station:DISL:DISL:1,2012-04-02T03:30:00Z,30.2513,-88.0778,6.776,10.25,1111122 
DISL,ioos:station:DISL:DISL:1,2012-04-02T04:00:00Z,30.2513,-88.0778,6.729,10.35,1111122 
DISL,ioos:station:DISL:DISL:1,2012-04-02T04:30:00Z,30.2513,-88.0778,6.672,10.23,1111122 
DISL,ioos:station:DISL:DISL:1,2012-04-02T05:00:00Z,30.2513,-88.0778,6.623,10.16,1111122 
DISL,ioos:station:DISL:DISL:1,2012-04-02T05:30:00Z,30.2513,-88.0778,6.516,10.19,1111122 
DISL,ioos:station:DISL:DISL:1,2012-04-02T06:00:00Z,30.2513,-88.0778,6.434,10.34,1111122 
DISL,ioos:station:DISL:DISL:1,2012-04-02T06:30:00Z,30.2513,-88.0778,6.427,10.61,1111122 
DISL,ioos:station:DISL:DISL:1,2012-04-02T07:00:00Z,30.2513,-88.0778,6.389,10.9,1111122 
DISL,ioos:station:DISL:DISL:1,2012-04-02T07:30:00Z,30.2513,-88.0778,6.251,10.76,1111122 
DISL,ioos:station:DISL:DISL:1,2012-04-02T08:00:00Z,30.2513,-88.0778,6.257,10.84,1111122 
DISL,ioos:station:DISL:DISL:1,2012-04-02T08:30:00Z,30.2513,-88.0778,6.224,10.97,1111122 
DISL,ioos:station:DISL:DISL:1,2012-04-02T09:00:00Z,30.2513,-88.0778,6.25,11.32,1111122 
DISL,ioos:station:DISL:DISL:1,2012-04-02T09:30:00Z,30.2513,-88.0778,6.186,11.44,1111122 
DISL,ioos:station:DISL:DISL:1,2012-04-02T10:00:00Z,30.2513,-88.0778,6.23,11.32,1111122 
DISL,ioos:station:DISL:DISL:1,2012-04-02T10:30:00Z,30.2513,-88.0778,6.235,11.37,1111122 
DISL,ioos:station:DISL:DISL:1,2012-04-02T11:00:00Z,30.2513,-88.0778,6.274,11.46,1111122 
DISL,ioos:station:DISL:DISL:1,2012-04-02T11:30:00Z,30.2513,-88.0778,6.229,11.68,1111122 
DISL,ioos:station:DISL:DISL:1,2012-04-02T12:00:00Z,30.2513,-88.0778,6.253,11.48,1111122 
DISL,ioos:station:DISL:DISL:1,2012-04-02T12:30:00Z,30.2513,-88.0778,6.282,11.84,1111122 
DISL,ioos:station:DISL:DISL:1,2012-04-02T13:00:00Z,30.2513,-88.0778,6.37,11.72,1111122 
DISL,ioos:station:DISL:DISL:1,2012-04-02T13:30:00Z,30.2513,-88.0778,6.43,11.51,1111122 
DISL,ioos:station:DISL:DISL:1,2012-04-02T14:00:00Z,30.2513,-88.0778,6.467,11.52,1111122 
DISL,ioos:station:DISL:DISL:1,2012-04-02T14:30:00Z,30.2513,-88.0778,6.448,11.72,1111122 
DISL,ioos:station:DISL:DISL:1,2012-04-02T15:00:00Z,30.2513,-88.0778,6.51,11.44,1111122 
DISL,ioos:station:DISL:DISL:1,2012-04-02T15:30:00Z,30.2513,-88.0778,6.542,11.62,1111122 
DISL,ioos:station:DISL:DISL:1,2012-04-02T16:00:00Z,30.2513,-88.0778,6.593,11.57,1111122 
DISL,ioos:station:DISL:DISL:1,2012-04-02T16:30:00Z,30.2513,-88.0778,6.532,11.34,1111122 
DISL,ioos:station:DISL:DISL:1,2012-04-02T17:00:00Z,30.2513,-88.0778,6.607,11.03,1111122 
DISL,ioos:station:DISL:DISL:1,2012-04-02T17:30:00Z,30.2513,-88.0778,6.647,10.95,1111122 
DISL,ioos:station:DISL:DISL:1,2012-04-02T18:00:00Z,30.2513,-88.0778,6.703,10.96,1111122 
DISL,ioos:station:DISL:DISL:1,2012-04-02T18:30:00Z,30.2513,-88.0778,6.659,11.01,1111122 
DISL,ioos:station:DISL:DISL:1,2012-04-02T19:00:00Z,30.2513,-88.0778,6.675,11.03,1111122 
DISL,ioos:station:DISL:DISL:1,2012-04-02T19:30:00Z,30.2513,-88.0778,6.803,10.97,1111122 
DISL,ioos:station:DISL:DISL:1,2012-04-02T20:00:00Z,30.2513,-88.0778,6.789,11.15,1111122 
DISL,ioos:station:DISL:DISL:1,2012-04-02T20:30:00Z,30.2513,-88.0778,6.848,11.13,1111122 
DISL,ioos:station:DISL:DISL:1,2012-04-02T21:00:00Z,30.2513,-88.0778,6.839,11.23,1111122 
DISL,ioos:station:DISL:DISL:1,2012-04-02T21:30:00Z,30.2513,-88.0778,6.973,11.09,1111122 
DISL,ioos:station:DISL:DISL:1,2012-04-02T22:00:00Z,30.2513,-88.0778,7.04,10.93,1111122 
DISL,ioos:station:DISL:DISL:1,2012-04-02T22:30:00Z,30.2513,-88.0778,7.13,12.02,1111122 
DISL,ioos:station:DISL:DISL:1,2012-04-02T23:00:00Z,30.2513,-88.0778,7.12,12.55,1111122 
DISL,ioos:station:DISL:DISL:1,2012-04-02T23:30:00Z,30.2513,-88.0778,7.13,10.81,1111122 
DISL,ioos:station:DISL:DISL:1,2012-04-03T00:00:00Z,30.2513,-88.0778,7.26,10.68,1111122 
DISL,ioos:station:DISL:DISL:1,2012-04-03T00:30:00Z,30.2513,-88.0778,7.25,10.66,1111122 
DISL,ioos:station:DISL:DISL:1,2012-04-03T01:00:00Z,30.2513,-88.0778,7.25,10.54,1111122 
DISL,ioos:station:DISL:DISL:1,2012-04-03T01:30:00Z,30.2513,-88.0778,7.21,10.36,1111122 
DISL,ioos:station:DISL:DISL:1,2012-04-03T02:00:00Z,30.2513,-88.0778,7.25,10.51,1111122 
DISL,ioos:station:DISL:DISL:1,2012-04-03T02:30:00Z,30.2513,-88.0778,7.27,11.05,1111122 
DISL,ioos:station:DISL:DISL:1,2012-04-03T03:00:00Z,30.2513,-88.0778,7.21,10.86,1111122 
DISL,ioos:station:DISL:DISL:1,2012-04-03T03:30:00Z,30.2513,-88.0778,7.23,11.32,1111122 
DISL,ioos:station:DISL:DISL:1,2012-04-03T04:00:00Z,30.2513,-88.0778,7.35,10.56,1111122 
DISL,ioos:station:DISL:DISL:1,2012-04-03T04:30:00Z,30.2513,-88.0778,7.26,10.41,1111122 
DISL,ioos:station:DISL:DISL:1,2012-04-03T05:00:00Z,30.2513,-88.0778,7.08,11.27,1111122 
DISL,ioos:station:DISL:DISL:1,2012-04-03T05:30:00Z,30.2513,-88.0778,6.42,11.26,1111122 
DISL,ioos:station:DISL:DISL:1,2012-04-03T06:00:00Z,30.2513,-88.0778,6.848,11.2,1111122 
DISL,ioos:station:DISL:DISL:1,2012-04-03T06:30:00Z,30.2513,-88.0778,6.869,11.08,1111122 
DISL,ioos:station:DISL:DISL:1,2012-04-03T07:00:00Z,30.2513,-88.0778,6.917,11.07,1111122 
DISL,ioos:station:DISL:DISL:1,2012-04-03T07:30:00Z,30.2513,-88.0778,6.409,10.84,1111122 
DISL,ioos:station:DISL:DISL:1,2012-04-03T08:00:00Z,30.2513,-88.0778,6.401,10.83,1111122 
DISL,ioos:station:DISL:DISL:1,2012-04-03T08:30:00Z,30.2513,-88.0778,6.332,10.32,1111122 
DISL,ioos:station:DISL:DISL:1,2012-04-03T09:00:00Z,30.2513,-88.0778,6.502,7.95,1111122 
DISL,ioos:station:DISL:DISL:1,2012-04-03T09:30:00Z,30.2513,-88.0778,6.629,7.73,1111122 
DISL,ioos:station:DISL:DISL:1,2012-04-03T10:00:00Z,30.2513,-88.0778,6.134,8.24,1111122 
DISL,ioos:station:DISL:DISL:1,2012-04-03T10:30:00Z,30.2513,-88.0778,6.436,8.99,1111122 
DISL,ioos:station:DISL:DISL:1,2012-04-03T11:00:00Z,30.2513,-88.0778,6.429,9.29,1111122 
DISL,ioos:station:DISL:DISL:1,2012-04-03T11:30:00Z,30.2513,-88.0778,6.612,7.89,1111122 
DISL,ioos:station:DISL:DISL:1,2012-04-03T12:00:00Z,30.2513,-88.0778,6.44,7.85,1111122 
DISL,ioos:station:DISL:DISL:1,2012-04-03T12:30:00Z,30.2513,-88.0778,6.56,9.08,1111122 
DISL,ioos:station:DISL:DISL:1,2012-04-03T13:00:00Z,30.2513,-88.0778,6.537,9.85,1111122 
DISL,ioos:station:DISL:DISL:1,2012-04-03T13:30:00Z,30.2513,-88.0778,6.54,10.12,1111122 
DISL,ioos:station:DISL:DISL:1,2012-04-03T14:00:00Z,30.2513,-88.0778,6.411,10.08,1111122 
DISL,ioos:station:DISL:DISL:1,2012-04-03T14:30:00Z,30.2513,-88.0778,6.724,10.08,1111122 
DISL,ioos:station:DISL:DISL:1,2012-04-03T15:00:00Z,30.2513,-88.0778,6.888,9.73,1111122 
DISL,ioos:station:DISL:DISL:1,2012-04-03T15:30:00Z,30.2513,-88.0778,6.914,8.58,1111122 
DISL,ioos:station:DISL:DISL:1,2012-04-03T16:00:00Z,30.2513,-88.0778,6.889,8.24,1111122 
DISL,ioos:station:DISL:DISL:1,2012-04-03T16:30:00Z,30.2513,-88.0778,6.988,8.6,1111122 
DISL,ioos:station:DISL:DISL:1,2012-04-03T17:00:00Z,30.2513,-88.0778,6.894,9.3,1111122 
DISL,ioos:station:DISL:DISL:1,2012-04-03T17:30:00Z,30.2513,-88.0778,6.797,9.57,1111122 
DISL,ioos:station:DISL:DISL:1,2012-04-03T18:00:00Z,30.2513,-88.0778,6.67,10.45,1111122 
DISL,ioos:station:DISL:DISL:1,2012-04-03T18:30:00Z,30.2513,-88.0778,6.733,10.19,1111122 
DISL,ioos:station:DISL:DISL:1,2012-04-03T19:00:00Z,30.2513,-88.0778,6.873,7.9,1111122 
DISL,ioos:station:DISL:DISL:1,2012-04-03T19:30:00Z,30.2513,-88.0778,6.644,8.17,1111122 
DISL,ioos:station:DISL:DISL:1,2012-04-03T20:00:00Z,30.2513,-88.0778,6.709,6.44,1111122 
DISL,ioos:station:DISL:DISL:1,2012-04-03T20:30:00Z,30.2513,-88.0778,6.771,5.94,1111122 
DISL,ioos:station:DISL:DISL:1,2012-04-03T21:00:00Z,30.2513,-88.0778,6.726,5.73,1111122 
DISL,ioos:station:DISL:DISL:1,2012-04-03T21:30:00Z,30.2513,-88.0778,6.716,5.74,1111122 
DISL,ioos:station:DISL:DISL:1,2012-04-03T22:00:00Z,30.2513,-88.0778,6.604,5.58,1111122 
DISL,ioos:station:DISL:DISL:1,2012-04-03T22:30:00Z,30.2513,-88.0778,6.699,5.4,1111122 
DISL,ioos:station:DISL:DISL:1,2012-04-03T23:00:00Z,30.2513,-88.0778,6.734,5.24,1111122 
DISL,ioos:station:DISL:DISL:1,2012-04-03T23:30:00Z,30.2513,-88.0778,6.697,5.19,1111122 
DISL,ioos:station:DISL:DISL:1,2012-04-04T00:00:00Z,30.2513,-88.0778,6.647,5.13,1111122 
DISL,ioos:station:DISL:DISL:1,2012-04-04T00:30:00Z,30.2513,-88.0778,6.711,5.43,1111122 
DISL,ioos:station:DISL:DISL:1,2012-04-04T01:00:00Z,30.2513,-88.0778,6.719,5.4,1111122 
DISL,ioos:station:DISL:DISL:1,2012-04-04T01:30:00Z,30.2513,-88.0778,6.829,6.02,1111122 
DISL,ioos:station:DISL:DISL:1,2012-04-04T02:00:00Z,30.2513,-88.0778,6.807,8.54,1111122 
DISL,ioos:station:DISL:DISL:1,2012-04-04T02:30:00Z,30.2513,-88.0778,6.848,8.74,1111122 
DISL,ioos:station:DISL:DISL:1,2012-04-04T03:00:00Z,30.2513,-88.0778,6.836,6.39,1111122 
DISL,ioos:station:DISL:DISL:1,2012-04-04T03:30:00Z,30.2513,-88.0778,6.935,6.19,1111122 
DISL,ioos:station:DISL:DISL:1,2012-04-04T04:00:00Z,30.2513,-88.0778,6.84,6.36,1111122 
DISL,ioos:station:DISL:DISL:1,2012-04-04T04:30:00Z,30.2513,-88.0778,6.897,6.14,1111122 
DISL,ioos:station:DISL:DISL:1,2012-04-04T05:00:00Z,30.2513,-88.0778,6.827,6.77,1111122 
DISL,ioos:station:DISL:DISL:1,2012-04-04T05:30:00Z,30.2513,-88.0778,6.847,5.91,1111122 
DISL,ioos:station:DISL:DISL:1,2012-04-04T06:00:00Z,30.2513,-88.0778,6.735,5.91,1111122 
DISL,ioos:station:DISL:DISL:1,2012-04-04T06:30:00Z,30.2513,-88.0778,6.704,5.31,1111122 
DISL,ioos:station:DISL:DISL:1,2012-04-04T07:00:00Z,30.2513,-88.0778,6.737,5.02,1111122 
DISL,ioos:station:DISL:DISL:1,2012-04-04T07:30:00Z,30.2513,-88.0778,6.659,4.84,1111122 
DISL,ioos:station:DISL:DISL:1,2012-04-04T08:00:00Z,30.2513,-88.0778,6.886,5.01,1111122 
DISL,ioos:station:DISL:DISL:1,2012-04-04T08:30:00Z,30.2513,-88.0778,6.827,4.9,1111122 
DISL,ioos:station:DISL:DISL:1,2012-04-04T09:00:00Z,30.2513,-88.0778,6.732,4.5,1111122 
DISL,ioos:station:DISL:DISL:1,2012-04-04T09:30:00Z,30.2513,-88.0778,6.241,5.88,1111122 
DISL,ioos:station:DISL:DISL:1,2012-04-04T10:00:00Z,30.2513,-88.0778,6.624,7.23,1111122 
DISL,ioos:station:DISL:DISL:1,2012-04-04T10:30:00Z,30.2513,-88.0778,6.727,4.66,1111122 
DISL,ioos:station:DISL:DISL:1,2012-04-04T11:00:00Z,30.2513,-88.0778,6.668,4.6,1111122 
DISL,ioos:station:DISL:DISL:1,2012-04-04T11:30:00Z,30.2513,-88.0778,6.661,4.5,1111122 
DISL,ioos:station:DISL:DISL:1,2012-04-04T12:00:00Z,30.2513,-88.0778,6.766,4.69,1111122 
DISL,ioos:station:DISL:DISL:1,2012-04-04T12:30:00Z,30.2513,-88.0778,6.724,4.68,1111122 
DISL,ioos:station:DISL:DISL:1,2012-04-04T13:00:00Z,30.2513,-88.0778,6.623,4.69,1111122 
DISL,ioos:station:DISL:DISL:1,2012-04-04T13:30:00Z,30.2513,-88.0778,6.47,4.84,1111122 
DISL,ioos:station:DISL:DISL:1,2012-04-04T14:00:00Z,30.2513,-88.0778,6.888,4.72,1111122 
DISL,ioos:station:DISL:DISL:1,2012-04-04T14:30:00Z,30.2513,-88.0778,7.16,4.75,1111122 
DISL,ioos:station:DISL:DISL:1,2012-04-04T15:00:00Z,30.2513,-88.0778,7.11,4.93,1111122 
DISL,ioos:station:DISL:DISL:1,2012-04-04T15:30:00Z,30.2513,-88.0778,6.978,6.64,1111122 
DISL,ioos:station:DISL:DISL:1,2012-04-04T16:00:00Z,30.2513,-88.0778,6.975,8.08,1111122 
DISL,ioos:station:DISL:DISL:1,2012-04-04T16:30:00Z,30.2513,-88.0778,6.786,8.31,1111122 
DISL,ioos:station:DISL:DISL:1,2012-04-04T17:00:00Z,30.2513,-88.0778,6.331,8.36,1111122 
DISL,ioos:station:DISL:DISL:1,2012-04-04T17:30:00Z,30.2513,-88.0778,6.277,8.68,1111122 
DISL,ioos:station:DISL:DISL:1,2012-04-04T18:00:00Z,30.2513,-88.0778,6.455,4.84,1111122 
DISL,ioos:station:DISL:DISL:1,2012-04-04T18:30:00Z,30.2513,-88.0778,6.638,4.64,1111122 
DISL,ioos:station:DISL:DISL:1,2012-04-04T19:00:00Z,30.2513,-88.0778,6.486,4.8,1111122 
DISL,ioos:station:DISL:DISL:1,2012-04-04T19:30:00Z,30.2513,-88.0778,6.469,7.88,1111122 
DISL,ioos:station:DISL:DISL:1,2012-04-04T20:00:00Z,30.2513,-88.0778,6.708,8.7,1111122 
DISL,ioos:station:DISL:DISL:1,2012-04-04T20:30:00Z,30.2513,-88.0778,6.827,9.5,1111122 
DISL,ioos:station:DISL:DISL:1,2012-04-04T21:00:00Z,30.2513,-88.0778,6.717,8.54,1111122 
DISL,ioos:station:DISL:DISL:1,2012-04-04T21:30:00Z,30.2513,-88.0778,6.713,5.7,1111122 
DISL,ioos:station:DISL:DISL:1,2012-04-04T22:00:00Z,30.2513,-88.0778,6.815,5.98,1111122 
DISL,ioos:station:DISL:DISL:1,2012-04-04T22:30:00Z,30.2513,-88.0778,7.06,7.42,1111122 
DISL,ioos:station:DISL:DISL:1,2012-04-04T23:00:00Z,30.2513,-88.0778,6.943,8.09,1111122 
DISL,ioos:station:DISL:DISL:1,2012-04-04T23:30:00Z,30.2513,-88.0778,6.99,8.28,1111122 
DISL,ioos:station:DISL:DISL:1,2012-04-05T00:00:00Z,30.2513,-88.0778,7.05,7.69,1111122 
DISL,ioos:station:DISL:DISL:1,2012-04-05T00:30:00Z,30.2513,-88.0778,7.14,7.07,1111122 
DISL,ioos:station:DISL:DISL:1,2012-04-05T01:00:00Z,30.2513,-88.0778,7.08,7.23,1111122 
DISL,ioos:station:DISL:DISL:1,2012-04-05T01:30:00Z,30.2513,-88.0778,7.01,8.35,1111122 
DISL,ioos:station:DISL:DISL:1,2012-04-05T02:00:00Z,30.2513,-88.0778,7.0,8.4,1111122 
DISL,ioos:station:DISL:DISL:1,2012-04-05T02:30:00Z,30.2513,-88.0778,7.14,5.18,1111122 
DISL,ioos:station:DISL:DISL:1,2012-04-05T03:00:00Z,30.2513,-88.0778,7.19,7.31,1111122 
DISL,ioos:station:DISL:DISL:1,2012-04-05T03:30:00Z,30.2513,-88.0778,7.26,6.08,1111122 
DISL,ioos:station:DISL:DISL:1,2012-04-05T04:00:00Z,30.2513,-88.0778,7.08,5.0,1111122 
DISL,ioos:station:DISL:DISL:1,2012-04-05T04:30:00Z,30.2513,-88.0778,6.971,5.88,1111122 
DISL,ioos:station:DISL:DISL:1,2012-04-05T05:00:00Z,30.2513,-88.0778,6.901,6.18,1111122 
DISL,ioos:station:DISL:DISL:1,2012-04-05T05:30:00Z,30.2513,-88.0778,7.0,6.18,1111122 
DISL,ioos:station:DISL:DISL:1,2012-04-05T06:00:00Z,30.2513,-88.0778,6.888,8.17,1111122 
DISL,ioos:station:DISL:DISL:1,2012-04-05T06:30:00Z,30.2513,-88.0778,6.889,7.67,1111122 
DISL,ioos:station:DISL:DISL:1,2012-04-05T07:00:00Z,30.2513,-88.0778,6.832,6.81,1111122 
DISL,ioos:station:DISL:DISL:1,2012-04-05T07:30:00Z,30.2513,-88.0778,6.797,5.45,1111122 
DISL,ioos:station:DISL:DISL:1,2012-04-05T08:00:00Z,30.2513,-88.0778,6.836,5.62,1111122 
DISL,ioos:station:DISL:DISL:1,2012-04-05T08:30:00Z,30.2513,-88.0778,6.795,5.94,1111122 
DISL,ioos:station:DISL:DISL:1,2012-04-05T09:00:00Z,30.2513,-88.0778,6.814,5.82,1111122 
DISL,ioos:station:DISL:DISL:1,2012-04-05T09:30:00Z,30.2513,-88.0778,6.855,6.58,1111122 
DISL,ioos:station:DISL:DISL:1,2012-04-05T10:00:00Z,30.2513,-88.0778,6.718,6.72,1111122 
DISL,ioos:station:DISL:DISL:1,2012-04-05T10:30:00Z,30.2513,-88.0778,6.776,6.76,1111122 
DISL,ioos:station:DISL:DISL:1,2012-04-05T11:00:00Z,30.2513,-88.0778,6.838,8.21,1111122 
DISL,ioos:station:DISL:DISL:1,2012-04-05T11:30:00Z,30.2513,-88.0778,6.828,16.44,1111122 
DISL,ioos:station:DISL:DISL:1,2012-04-05T12:00:00Z,30.2513,-88.0778,6.946,14.44,1111122 
DISL,ioos:station:DISL:DISL:1,2012-04-05T12:30:00Z,30.2513,-88.0778,6.989,15.73,1111122 
DISL,ioos:station:DISL:DISL:1,2012-04-05T13:00:00Z,30.2513,-88.0778,7.01,16.89,1111122 
DISL,ioos:station:DISL:DISL:1,2012-04-05T13:30:00Z,30.2513,-88.0778,7.04,17.39,1111122 
DISL,ioos:station:DISL:DISL:1,2012-04-05T14:00:00Z,30.2513,-88.0778,7.12,15.67,1111122 
DISL,ioos:station:DISL:DISL:1,2012-04-05T14:30:00Z,30.2513,-88.0778,7.18,10.4,1111122 
DISL,ioos:station:DISL:DISL:1,2012-04-05T15:00:00Z,30.2513,-88.0778,7.1,17.0,1111122 
DISL,ioos:station:DISL:DISL:1,2012-04-05T15:30:00Z,30.2513,-88.0778,7.02,7.16,1111122 
DISL,ioos:station:DISL:DISL:1,2012-04-05T16:00:00Z,30.2513,-88.0778,7.11,10.24,1111122 
DISL,ioos:station:DISL:DISL:1,2012-04-05T16:30:00Z,30.2513,-88.0778,7.12,9.23,1111122 
DISL,ioos:station:DISL:DISL:1,2012-04-05T17:00:00Z,30.2513,-88.0778,7.01,12.47,1111122 
DISL,ioos:station:DISL:DISL:1,2012-04-05T17:30:00Z,30.2513,-88.0778,6.866,10.54,1111122 
DISL,ioos:station:DISL:DISL:1,2012-04-05T18:00:00Z,30.2513,-88.0778,6.936,10.97,1111122 
DISL,ioos:station:DISL:DISL:1,2012-04-05T18:30:00Z,30.2513,-88.0778,7.01,8.7,1111122 
DISL,ioos:station:DISL:DISL:1,2012-04-05T19:00:00Z,30.2513,-88.0778,6.802,8.11,1111122 
DISL,ioos:station:DISL:DISL:1,2012-04-05T19:30:00Z,30.2513,-88.0778,6.631,8.21,1111122 
DISL,ioos:station:DISL:DISL:1,2012-04-05T20:00:00Z,30.2513,-88.0778,6.47,8.12,1111122 
DISL,ioos:station:DISL:DISL:1,2012-04-05T20:30:00Z,30.2513,-88.0778,6.373,8.18,1111122 
DISL,ioos:station:DISL:DISL:1,2012-04-05T21:00:00Z,30.2513,-88.0778,6.269,8.17,1111122 
DISL,ioos:station:DISL:DISL:1,2012-04-05T21:30:00Z,30.2513,-88.0778,6.325,8.18,1111122 
DISL,ioos:station:DISL:DISL:1,2012-04-05T22:00:00Z,30.2513,-88.0778,6.393,6.15,1111122 
DISL,ioos:station:DISL:DISL:1,2012-04-05T22:30:00Z,30.2513,-88.0778,6.422,5.6,1111122 
DISL,ioos:station:DISL:DISL:1,2012-04-05T23:00:00Z,30.2513,-88.0778,6.885,5.43,1111122 
DISL,ioos:station:DISL:DISL:1,2012-04-05T23:30:00Z,30.2513,-88.0778,6.372,5.85,1111122 
DISL,ioos:station:DISL:DISL:1,2012-04-06T00:00:00Z,30.2513,-88.0778,6.365,6.31,1111122 
DISL,ioos:station:DISL:DISL:1,2012-04-06T00:30:00Z,30.2513,-88.0778,6.496,6.83,1111122 
DISL,ioos:station:DISL:DISL:1,2012-04-06T01:00:00Z,30.2513,-88.0778,6.407,7.08,1111122 
DISL,ioos:station:DISL:DISL:1,2012-04-06T01:30:00Z,30.2513,-88.0778,6.425,6.75,1111122 
DISL,ioos:station:DISL:DISL:1,2012-04-06T02:00:00Z,30.2513,-88.0778,6.389,6.12,1111122 
DISL,ioos:station:DISL:DISL:1,2012-04-06T02:30:00Z,30.2513,-88.0778,6.442,7.78,1111122 
DISL,ioos:station:DISL:DISL:1,2012-04-06T03:00:00Z,30.2513,-88.0778,6.386,7.0,1111122 
DISL,ioos:station:DISL:DISL:1,2012-04-06T03:30:00Z,30.2513,-88.0778,6.393,6.83,1111122 
DISL,ioos:station:DISL:DISL:1,2012-04-06T04:00:00Z,30.2513,-88.0778,6.573,9.67,1111122 
DISL,ioos:station:DISL:DISL:1,2012-04-06T04:30:00Z,30.2513,-88.0778,6.636,9.17,1111122 
DISL,ioos:station:DISL:DISL:1,2012-04-06T05:00:00Z,30.2513,-88.0778,6.635,7.77,1111122 
DISL,ioos:station:DISL:DISL:1,2012-04-06T05:30:00Z,30.2513,-88.0778,6.673,6.66,1111122 
DISL,ioos:station:DISL:DISL:1,2012-04-06T06:00:00Z,30.2513,-88.0778,6.868,6.43,1111122 
DISL,ioos:station:DISL:DISL:1,2012-04-06T06:30:00Z,30.2513,-88.0778,6.817,6.56,1111122 
DISL,ioos:station:DISL:DISL:1,2012-04-06T07:00:00Z,30.2513,-88.0778,6.69,6.89,1111122 
DISL,ioos:station:DISL:DISL:1,2012-04-06T07:30:00Z,30.2513,-88.0778,6.663,7.08,1111122 
DISL,ioos:station:DISL:DISL:1,2012-04-06T08:00:00Z,30.2513,-88.0778,6.806,6.89,1111122 
DISL,ioos:station:DISL:DISL:1,2012-04-06T08:30:00Z,30.2513,-88.0778,6.697,6.65,1111122 
DISL,ioos:station:DISL:DISL:1,2012-04-06T09:00:00Z,30.2513,-88.0778,6.811,6.62,1111122 
DISL,ioos:station:DISL:DISL:1,2012-04-06T09:30:00Z,30.2513,-88.0778,6.617,6.19,1111122 
DISL,ioos:station:DISL:DISL:1,2012-04-06T10:00:00Z,30.2513,-88.0778,6.765,6.21,1111122 
DISL,ioos:station:DISL:DISL:1,2012-04-06T10:30:00Z,30.2513,-88.0778,6.792,5.9,1111122 
DISL,ioos:station:DISL:DISL:1,2012-04-06T11:00:00Z,30.2513,-88.0778,6.937,6.53,1111122 
DISL,ioos:station:DISL:DISL:1,2012-04-06T11:30:00Z,30.2513,-88.0778,7.13,6.5,1111122 
DISL,ioos:station:DISL:DISL:1,2012-04-06T12:00:00Z,30.2513,-88.0778,7.19,6.58,1111122 
DISL,ioos:station:DISL:DISL:1,2012-04-06T12:30:00Z,30.2513,-88.0778,7.12,10.57,1111122 
DISL,ioos:station:DISL:DISL:1,2012-04-06T13:00:00Z,30.2513,-88.0778,7.04,12.31,1111122 
DISL,ioos:station:DISL:DISL:1,2012-04-06T13:30:00Z,30.2513,-88.0778,7.12,13.85,1111122 
DISL,ioos:station:DISL:DISL:1,2012-04-06T14:00:00Z,30.2513,-88.0778,7.18,14.37,1111122 
DISL,ioos:station:DISL:DISL:1,2012-04-06T14:30:00Z,30.2513,-88.0778,7.36,11.88,1111122 
DISL,ioos:station:DISL:DISL:1,2012-04-06T15:00:00Z,30.2513,-88.0778,7.26,9.03,1111122 